Location: ActonStarParty
(42.4766°N, 71.4538°W)
Time: 11:28:53
(UTC-05:00)

ATLAS 5 CENTAUR R/B - Visible Passes

Search period start: 22 November 2014 00:00
Search period end: 02 December 2014 00:00
Orbit: 369 x 14898 km, 60.9° (Epoch: 10 November)

Date Brightness Start Highest point End Pass type
(mag) Time Alt. Az. Time Alt. Az. Time Alt. Az.
22 Nov 5.1 03:44:49 10° NW 04:28:37 78° NE 04:36:24 10° SE visible
22 Nov 7.9 15:34:47 10° ESE 17:00:01 34° E 17:47:42 10° NE visible
22 Nov 7.5 19:45:28 10° SSW 21:57:06 77° NW 22:40:46 10° NE visible
23 Nov 5.8 02:17:02 10° WNW 03:19:33 60° NNE 03:29:36 10° ESE visible
23 Nov 7.6 18:36:39 10° S 20:41:47 89° ESE 21:32:43 10° NE visible
24 Nov 6.5 00:34:57 10° W 02:08:26 53° N 02:22:10 10° E visible
24 Nov 7.6 17:31:48 10° S 19:29:48 73° ESE 20:24:29 10° NE visible
24 Nov 7.0 22:52:05 10° WSW 00:54:54 54° N 01:14:19 10° ENE visible
25 Nov 4.8 05:25:45 10° NW 05:51:35 47° WSW 05:58:04 10° S visible
25 Nov 7.7 16:31:25 10° SSE 18:20:51 58° E 19:15:52 10° NE visible
25 Nov 7.2 21:23:33 10° SW 23:38:39 59° NNW 00:06:15 10° ENE visible
26 Nov 4.7 04:09:39 10° NW 04:45:41 81° WSW 04:52:40 10° SSE visible
26 Nov 7.8 15:37:14 10° SE 17:14:27 43° E 18:06:31 10° NE visible
26 Nov 7.3 20:05:28 10° SW 22:20:26 69° NW 22:58:06 10° NE visible
27 Nov 5.3 02:48:13 10° NW 03:37:46 71° NE 03:46:14 10° ESE visible
27 Nov 7.9 14:52:17 10° ESE 16:10:18 30° ENE 16:55:39 10° NE visible
27 Nov 7.4 18:53:31 10° SSW 21:02:55 82° WNW 21:49:55 10° NE visible
28 Nov 6.0 01:15:29 10° WNW 02:27:52 57° NNE 02:39:03 10° E visible
28 Nov 7.5 17:45:54 10° S 19:48:28 84° ESE 20:41:38 10° NE visible
28 Nov 6.7 23:30:05 10° W 01:15:47 53° N 01:31:17 10° E visible
29 Nov 5.3 05:46:33 10° NW 06:06:02 30° W 06:12:29 10° SSW visible
29 Nov 7.6 16:42:16 10° SSE 18:37:24 68° E 19:33:07 10° NE visible
29 Nov 7.0 21:51:46 10° WSW 00:01:06 55° NNW 00:23:10 10° ENE visible
30 Nov 4.7 04:31:42 10° NW 05:01:17 58° WSW 05:07:55 10° S visible
30 Nov 7.7 15:43:31 10° SSE 17:29:15 53° E 18:24:07 10° NE visible
30 Nov 7.2 20:27:24 10° SW 22:43:40 62° NNW 23:14:53 10° ENE visible
01 Dec 4.8 03:13:58 10° NW 03:54:33 88° NE 04:01:59 10° SE visible
01 Dec 7.8 14:51:52 10° SE 16:23:33 39° E 17:14:11 10° NE visible
01 Dec 7.3 19:11:39 10° SSW 21:24:57 73° NW 22:06:33 10° NE visible
